Wetbulb
41.14 41.39 42.17 41.95 41.72 41.41 40.88 41.22 42.34 41.90 41.81 41.38 40.89 39.95 40.35 40.25 41.14 42.15 43.47 43.32 43.60 43.63 42.49 42.31 41.75 41.58 40.72 40.23 40.68 40.83 42.13 42.46 45.13 46.10 44.17 45.81 47.93 47.70 48.00 49.52 52.21 50.25 51.17
40.04 40.56 41.51 40.90 41.31 41.33 41.11 40.77 41.76 41.95 41.82 41.43 40.76 40.27 39.44 40.06 40.52 41.79 42.04 42.87 42.70 42.65 43.26 40.78 40.67 40.39 39.90 39.96 39.74 39.22 38.94 40.90 43.25 41.84 42.62 39.16 42.15 44.89 48.93 47.49 48.98 48.50 50.48
40.03 39.53 39.62 40.76 40.93 40.43 40.66 41.41 41.62 42.27 42.38 42.11 41.15 40.35 39.41 39.37 40.08 40.04 40.53 41.62 41.48 41.61 41.24 40.77 40.20 39.79 39.13 38.90 38.54 38.75 38.42 38.03 39.44 41.31 41.55 37.95 37.27 41.30 44.31 46.11 47.29 46.96 48.93
39.92 40.45 39.82 39.95 40.24 41.14 41.15 41.71 42.30 42.15 43.39 41.53 40.44 39.27 38.61 37.82 38.29 38.16 39.33 39.41 40.08 40.26 40.94 40.89 40.15 39.24 38.94 38.11 38.25 41.95 38.73 37.71 37.30 38.90 42.69 43.79 43.02 40.77 39.73 41.30 45.09 46.40 47.14
40.98 40.48 40.64 41.06 41.14 40.66 41.23 41.61 42.11 43.08 43.12 41.15 40.48 39.43 38.16 37.76 37.89 37.53 37.46 37.70 38.58 39.58 40.36 40.20 39.51 38.96 38.68 38.44 38.32 38.17 37.80 37.72 36.94 37.07 37.42 37.39 39.22 41.13 41.55 38.61 38.87 44.02 45.88
39.74 40.14 40.81 39.58 40.70 40.84 41.52 41.82 42.35 42.99 41.99 41.50 40.07 38.77 37.34 36.67 35.87 35.79 35.70 36.75 37.25 38.27 39.30 40.05 38.97 38.77 38.45 38.52 38.78 38.42 37.56 37.62 37.52 37.61 37.57 38.12 36.92 37.14 38.61 38.93 39.73 41.16 42.74
39.07 39.69 40.15 39.56 40.18 40.36 41.02 42.61 42.08 41.71 41.15 39.87 39.16 37.96 36.50 35.13 34.82 35.43 35.49 35.73 36.16 36.89 37.63 38.09 38.15 38.31 38.68 38.83 38.73 37.82 37.32 37.31 36.56 37.11 37.80 38.22 39.11 40.30 39.65 39.82 39.64 38.49 41.08
39.23 39.36 39.94 39.53 39.57 40.81 41.06 41.35 41.07 40.34 39.55 38.34 37.00 36.11 36.03 35.88 36.08 36.07 36.25 35.60 35.73 36.54 37.85 38.36 38.29 38.34 38.48 38.52 38.17 37.33 37.60 37.53 37.72 36.91 37.26 39.03 39.50 39.70 40.30 39.82 39.06 37.44 36.86
39.70 39.79 39.50 39.28 38.86 39.23 39.75 40.22 40.32 38.89 37.21 36.23 36.08 35.79 35.88 36.06 36.08 36.04 35.48 35.79 36.51 39.10 39.54 38.12 37.58 38.13 38.59 39.63 39.36 38.73 38.33 38.45 38.49 38.47 38.48 37.77 39.33 39.78 40.46 40.87 40.82 39.39 35.98
39.16 38.40 38.27 38.90 39.06 38.32 38.56 38.05 37.56 36.21 35.70 36.13 35.78 37.14 35.66 35.79 35.88 35.31 35.44 35.94 36.58 36.62 37.03 37.84 38.16 38.27 38.52 38.71 38.30 37.86 38.21 37.65 38.11 38.80 38.06 37.63 38.20 38.42 39.54 40.38 40.84 40.77 39.23
38.43 38.60 38.21 38.53 38.69 37.70 37.10 36.02 35.46 35.74 35.78 36.15 36.00 35.58 35.35 35.37 35.27 35.14 35.36 35.57 36.02 37.27 37.43 37.65 37.65 37.52 37.66 38.11 37.62 37.33 37.54 37.16 37.53 38.02 37.43 37.37 37.90 37.82 38.48 38.72 40.03 40.10 39.91
38.87 38.83 38.89 37.41 36.46 35.84 35.13 34.32 34.79 35.05 35.54 35.79 35.23 34.69 34.78 34.93 34.13 34.18 34.82 35.89 36.38 37.19 37.11 37.41 37.26 37.25 37.57 37.94 37.94 37.16 37.87 37.36 37.00 37.61 37.95 37.79 39.59 37.83 37.98 38.09 38.51 39.11 40.11
38.89 38.38 36.51 35.05 34.73 34.15 33.66 34.06 34.38 34.65 35.16 34.83 34.32 34.60 34.58 34.10 33.79 34.36 35.32 36.05 36.19 36.37 36.84 37.01 36.62 37.05 37.84 38.88 39.18 38.43 37.89 37.52 37.41 37.63 37.61 38.47 38.88 37.71 37.45 37.50 37.69 39.08 41.11
37.92 37.12 35.84 34.20 33.90 33.25 33.22 33.75 33.96 34.31 34.43 34.52 34.18 33.50 33.31 33.51 34.13 35.23 35.39 35.80 36.22 35.98 36.39 37.47 38.61 38.89 38.89 39.15 39.04 38.93 38.57 38.56 39.03 38.60 38.85 39.17 39.41 38.40 37.95 37.35 37.66 39.67 39.63
37.37 36.22 35.87 35.14 33.63 32.86 32.90 33.39 33.53 33.73 33.58 33.77 33.37 33.67 34.14 34.16 34.20 34.44 35.33 35.82 36.13 36.54 37.05 38.12 38.56 38.72 38.89 39.38 38.87 39.03 38.94 39.30 39.38 39.81 40.52 41.16 41.78 44.85 43.45 39.44 37.66 38.68 39.89
36.94 37.27 37.18 35.98 34.40 33.25 32.76 32.99 33.05 33.32 33.12 32.39 32.57 33.62 34.49 34.67 34.53 34.74 35.23 35.52 36.80 37.65 37.73 37.59 37.90 37.93 39.09 42.72 44.19 43.67 41.46 41.32 40.91 39.92 40.61 41.55 43.53 43.72 46.14 46.25 46.84 44.35 39.44
36.51 36.59 36.43 35.11 33.66 33.30 33.62 32.48 32.38 32.32 31.61 31.45 32.25 33.09 33.78 33.55 34.25 34.87 35.09 36.64 36.93 37.21 37.24 37.70 38.13 38.12 38.96 43.82 45.49 45.81 43.06 42.19 41.76 41.68 41.43 40.20 41.70 42.89 41.27 43.86 45.80 46.06 46.80
36.38 36.24 34.98 33.78 33.67 33.51 33.10 32.55 32.55 31.30 31.25 31.17 31.33 32.40 33.04 33.45 34.18 34.40 34.98 36.66 37.06 36.60 37.28 37.81 38.32 38.48 39.45 44.58 46.17 47.02 43.97 42.37 42.02 42.23 41.54 39.51 39.27 40.07 40.62 40.31 40.10 39.91 41.05
36.72 35.36 34.02 33.73 32.80 32.69 32.80 31.93 31.17 31.14 31.05 31.23 31.35 32.46 33.49 33.27 33.67 33.99 35.82 36.75 36.95 37.09 37.39 38.35 38.83 39.01 39.62 44.44 46.56 45.77 43.37 41.48 41.31 41.35 40.66 39.15 38.67 42.20 44.22 41.14 40.17 39.78 41.14
37.06 35.17 33.94 33.33 32.00 32.30 31.61 30.55 30.46 29.94 29.66 31.35 32.34 33.36 33.78 33.41 33.61 34.97 36.23 37.20 37.38 38.01 39.36 39.06 39.68 41.57 40.79 43.88 46.01 45.54 43.63 40.93 40.43 40.92 39.77 43.22 40.99 43.59 44.37 40.83 40.66 39.73 40.21
36.04 34.16 32.22 31.77 31.63 31.55 30.76 30.02 29.43 28.86 31.10 32.41 33.12 33.47 33.90 34.01 35.82 36.75 37.05 37.69 38.41 38.45 38.22 38.52 39.39 40.00 41.28 42.25 46.65 46.48 43.74 42.41 40.30 39.67 38.21 38.46 42.90 43.88 44.36 44.59 41.95 41.74 42.06
34.24 33.10 31.99 31.57 31.55 30.92 30.03 29.11 28.07 30.82 31.32 32.49 32.76 33.11 33.67 35.88 36.92 36.76 37.87 38.31 37.94 37.36 37.44 38.05 39.09 41.43 42.26 44.24 44.61 45.98 46.08 45.79 42.06 39.31 38.58 38.04 42.56 43.66 44.25 44.05 45.54 46.06 45.13
33.26 33.17 31.55 31.01 30.77 30.65 30.22 28.54 29.85 30.69 31.99 31.83 31.93 32.64 35.80 36.29 37.37 36.86 37.50 37.18 37.62 37.19 37.66 38.99 38.72 39.68 40.59 41.44 44.66 46.62 47.89 47.34 43.75 41.35 40.44 41.86 43.04 43.75 43.12 44.71 45.39 46.03 44.04
32.54 32.60 31.51 30.29 29.81 30.69 30.79 29.93 30.06 31.34 31.54 30.75 31.49 34.27 35.20 36.62 36.51 37.53 38.27 37.36 36.94 37.33 39.31 38.81 38.92 38.85 39.48 40.27 42.63 43.23 43.30 45.11 43.69 43.71 41.65 41.95 42.05 43.09 42.51 42.08 42.10 43.41 42.76
32.52 31.95 30.67 30.12 30.22 30.72 30.26 30.27 30.69 31.54 30.69 31.18 32.20 34.77 35.88 35.85 36.05 37.45 37.81 37.97 38.97 40.91 39.40 39.64 40.31 38.94 38.24 40.55 43.70 43.67 41.05 40.41 40.99 41.48 39.21 36.30 35.93 35.63 37.95 38.86 39.97 40.85 42.61
31.83 31.12 30.88 30.49 30.62 30.31 29.79 30.23 31.56 31.37 30.71 31.52 33.93 34.43 35.23 35.48 36.46 36.77 36.67 40.61 41.93 42.29 42.67 42.64 42.17 41.41 42.93 43.43 43.38 43.64 43.62 42.55 41.86 37.69 36.03 33.47 36.23 34.05 34.29 34.98 35.72 39.08 40.43
MSLP
1019.01 1019.16 1019.16 1019.27 1019.60 1019.86 1020.01 1019.95 1020.09 1020.27 1020.44 1020.69 1020.92 1021.08 1021.17 1020.90 1020.72 1020.55 1020.42 1020.32 1020.26 1020.17 1020.11 1019.97 1019.73 1019.55 1019.56 1019.40 1019.21 1018.99 1018.78 1018.42 1017.94 1017.85 1017.16 1016.45 1015.77 1015.57 1015.14 1015.23 1015.01 1014.61 1014.17
1019.08 1019.21 1019.36 1019.36 1019.41 1019.61 1019.95 1020.15 1020.21 1020.27 1020.39 1020.55 1020.76 1020.92 1021.02 1020.94 1020.86 1020.65 1020.42 1020.33 1020.28 1020.17 1020.04 1020.09 1019.97 1019.70 1019.60 1019.34 1019.14 1019.05 1019.05 1018.71 1018.16 1018.28 1017.86 1016.73 1015.97 1015.40 1015.04 1014.95 1014.75 1014.54 1014.28
1018.78 1019.05 1019.16 1019.20 1019.30 1019.62 1019.86 1020.02 1020.10 1020.16 1020.24 1020.40 1020.67 1020.88 1021.03 1020.98 1020.84 1020.64 1020.48 1020.33 1020.24 1020.04 1019.90 1019.77 1019.68 1019.52 1019.42 1019.27 1019.03 1018.83 1018.82 1018.68 1018.21 1018.04 1018.22 1017.49 1016.76 1016.00 1014.96 1014.57 1014.39 1014.29 1014.24
1018.45 1018.54 1018.77 1019.06 1019.13 1019.13 1019.51 1019.70 1019.85 1019.96 1020.09 1020.29 1020.48 1020.68 1020.92 1021.15 1020.95 1020.82 1020.56 1020.30 1019.98 1019.81 1019.61 1019.43 1019.29 1019.19 1019.05 1018.96 1018.74 1018.49 1018.42 1018.44 1018.36 1017.76 1017.36 1017.22 1016.97 1016.74 1015.15 1014.67 1014.24 1013.92 1013.87
1017.81 1018.13 1018.38 1018.45 1018.56 1019.05 1019.38 1019.42 1019.62 1019.80 1019.93 1020.08 1020.19 1020.44 1020.71 1020.85 1020.66 1020.57 1020.41 1020.19 1019.88 1019.58 1019.33 1019.08 1018.89 1018.80 1018.59 1018.45 1018.29 1018.09 1017.95 1017.86 1017.84 1017.69 1017.34 1016.87 1016.46 1016.25 1016.27 1014.91 1014.23 1013.71 1013.43
1017.58 1017.92 1018.00 1018.38 1018.68 1018.93 1019.28 1019.40 1019.54 1019.64 1019.80 1019.99 1020.07 1020.19 1020.52 1020.68 1020.75 1020.62 1020.53 1020.13 1019.79 1019.45 1019.04 1018.68 1018.50 1018.29 1018.13 1017.93 1017.65 1017.42 1017.29 1017.09 1016.90 1016.81 1016.70 1016.59 1016.33 1015.73 1015.58 1015.01 1014.33 1013.83 1013.16
1017.64 1017.88 1018.07 1018.33 1018.63 1018.84 1019.10 1019.32 1019.51 1019.69 1019.85 1019.91 1020.03 1020.19 1020.35 1020.49 1020.64 1020.56 1020.40 1020.11 1019.69 1019.27 1018.90 1018.58 1018.26 1017.97 1017.62 1017.34 1017.09 1016.88 1016.63 1016.40 1016.19 1015.92 1015.72 1015.49 1015.18 1014.93 1014.74 1014.57 1013.75 1013.53 1013.00
1017.42 1017.71 1017.86 1018.16 1018.43 1018.73 1019.03 1019.37 1019.69 1019.92 1019.96 1020.00 1020.11 1020.19 1020.30 1020.38 1020.32 1020.14 1019.91 1019.69 1019.41 1018.96 1018.45 1018.00 1017.67 1017.34 1016.99 1016.70 1016.45 1016.22 1015.96 1015.69 1015.37 1015.01 1014.74 1014.39 1014.16 1014.06 1013.89 1013.69 1013.37 1012.76 1012.65
1017.55 1017.74 1018.02 1018.34 1018.85 1019.24 1019.49 1019.74 1019.92 1020.03 1020.11 1020.17 1020.17 1020.24 1020.24 1020.18 1020.10 1019.70 1019.52 1019.28 1018.87 1018.34 1017.77 1017.48 1017.22 1016.83 1016.37 1016.02 1015.60 1015.22 1014.91 1014.66 1014.41 1014.07 1013.79 1013.46 1013.14 1013.08 1012.88 1012.66 1012.54 1012.21 1011.77
1018.00 1018.50 1018.88 1019.12 1019.38 1019.59 1019.78 1019.92 1020.06 1020.28 1020.37 1020.33 1020.37 1020.31 1020.14 1019.89 1019.80 1019.52 1019.24 1018.87 1018.37 1017.92 1017.46 1017.00 1016.52 1016.05 1015.63 1015.19 1014.75 1014.31 1014.01 1013.72 1013.48 1013.23 1012.88 1012.56 1012.41 1012.22 1012.04 1011.85 1011.54 1011.35 1011.00
1018.39 1018.68 1018.86 1019.11 1019.37 1019.65 1019.94 1020.25 1020.40 1020.52 1020.57 1020.46 1020.37 1020.25 1020.09 1019.89 1019.69 1019.27 1018.78 1018.31 1017.75 1017.34 1016.73 1016.25 1015.74 1015.28 1014.83 1014.42 1013.89 1013.45 1013.12 1012.83 1012.50 1012.33 1011.97 1011.61 1011.58 1011.32 1011.16 1011.01 1010.67 1010.37 1010.24
1018.79 1018.98 1019.11 1019.51 1019.92 1020.31 1020.51 1020.65 1020.70 1020.74 1020.66 1020.49 1020.31 1020.20 1019.94 1019.53 1019.10 1018.62 1018.12 1017.69 1017.19 1016.65 1016.13 1015.53 1014.96 1014.44 1013.93 1013.43 1012.88 1012.42 1012.11 1011.76 1011.43 1011.27 1011.02 1010.72 1010.65 1010.41 1010.25 1010.10 1009.74 1009.58 1009.41
1019.35 1019.61 1019.90 1020.22 1020.52 1020.76 1020.78 1020.87 1020.84 1020.73 1020.46 1020.22 1020.08 1019.82 1019.42 1019.01 1018.59 1018.13 1017.63 1017.15 1016.57 1015.95 1015.33 1014.74 1014.08 1013.45 1012.82 1012.22 1011.67 1011.24 1010.88 1010.60 1010.32 1010.14 1009.93 1009.73 1009.58 1009.37 1009.40 1009.20 1008.84 1008.68 1008.43
1019.95 1020.08 1020.32 1020.61 1020.74 1020.85 1020.89 1020.87 1020.73 1020.52 1020.31 1020.09 1019.96 1019.64 1019.14 1018.65 1018.16 1017.60 1017.05 1016.46 1015.86 1015.17 1014.49 1013.79 1012.95 1012.21 1011.64 1011.07 1010.48 1010.06 1009.61 1009.20 1008.87 1008.74 1008.68 1008.50 1008.29 1008.20 1008.12 1008.06 1007.92 1007.77 1007.66
1020.28 1020.37 1020.48 1020.50 1020.65 1020.83 1020.86 1020.83 1020.71 1020.52 1020.18 1020.00 1019.64 1019.18 1018.62 1018.09 1017.58 1017.05 1016.36 1015.66 1014.99 1014.27 1013.48 1012.64 1011.92 1011.31 1010.67 1009.92 1009.29 1008.76 1008.28 1007.93 1007.59 1007.39 1007.20 1007.16 1007.09 1006.75 1006.63 1006.61 1006.57 1006.66 1006.52
1020.44 1020.38 1020.28 1020.35 1020.59 1020.76 1020.85 1020.73 1020.54 1020.32 1020.06 1019.82 1019.49 1018.95 1018.30 1017.70 1017.12 1016.43 1015.67 1014.90 1013.91 1013.07 1012.35 1011.66 1010.96 1010.26 1009.48 1008.69 1008.00 1007.43 1006.81 1006.43 1006.17 1005.96 1005.88 1005.72 1005.85 1005.68 1005.01 1004.59 1004.64 1004.69 1005.21
1020.44 1020.29 1020.16 1020.24 1020.51 1020.70 1020.65 1020.64 1020.45 1020.19 1019.97 1019.69 1019.24 1018.65 1017.97 1017.32 1016.60 1015.79 1014.98 1013.93 1012.96 1012.17 1011.49 1010.76 1010.06 1009.25 1008.39 1007.47 1006.51 1005.85 1005.36 1004.92 1004.59 1004.47 1004.55 1004.40 1004.46 1004.50 1004.32 1004.17 1003.89 1003.53 1003.39
1020.33 1020.16 1019.91 1020.13 1020.30 1020.40 1020.43 1020.40 1020.27 1020.09 1019.81 1019.39 1018.80 1018.26 1017.59 1016.84 1015.99 1015.17 1014.28 1013.14 1012.34 1011.51 1010.73 1009.90 1009.05 1008.22 1007.22 1006.24 1005.25 1004.25 1003.62 1003.51 1003.24 1003.19 1003.24 1003.33 1003.43 1003.47 1003.42 1003.42 1003.37 1003.29 1003.33
1019.99 1019.70 1019.80 1019.99 1020.20 1020.26 1020.29 1020.33 1020.22 1019.99 1019.60 1019.04 1018.45 1017.82 1017.06 1016.25 1015.43 1014.49 1013.53 1012.59 1011.66 1010.74 1009.94 1009.09 1008.19 1007.28 1006.16 1005.22 1003.99 1002.99 1002.28 1001.97 1001.87 1001.95 1002.05 1002.47 1002.42 1002.32 1002.16 1002.25 1002.43 1002.55 1002.52
1019.62 1019.62 1019.86 1020.06 1020.25 1020.30 1020.35 1020.37 1020.16 1019.79 1019.34 1018.77 1018.14 1017.39 1016.56 1015.86 1014.97 1013.92 1012.87 1011.88 1011.01 1010.16 1009.37 1008.35 1007.42 1006.34 1005.20 1004.21 1002.98 1001.89 1001.02 1000.45 1000.72 1000.79 1001.10 1001.16 1001.20 1001.25 1001.14 1001.21 1001.30 1001.52 1001.85
1019.38 1019.54 1019.89 1020.24 1020.39 1020.45 1020.48 1020.41 1020.08 1019.75 1019.08 1018.38 1017.58 1016.80 1016.05 1015.38 1014.41 1013.12 1012.22 1011.30 1010.47 1009.62 1008.67 1007.72 1006.65 1005.54 1004.45 1003.04 1001.65 1000.60 999.60 999.17 999.35 999.73 1000.10 1000.36 1000.24 1000.08 999.96 999.95 1000.30 1000.51 1001.27
1019.47 1019.71 1020.13 1020.37 1020.40 1020.47 1020.48 1020.33 1020.10 1019.33 1018.70 1017.93 1017.20 1016.41 1015.60 1014.68 1013.54 1012.62 1011.68 1010.84 1009.96 1009.06 1007.92 1006.88 1005.67 1004.49 1003.33 1002.28 1000.83 999.36 997.99 997.38 997.52 998.63 999.25 999.59 999.57 999.46 999.28 999.20 999.11 999.62 1000.19
1019.86 1020.03 1020.34 1020.49 1020.42 1020.43 1020.31 1020.10 1019.46 1018.93 1018.33 1017.67 1016.84 1015.93 1014.69 1013.88 1012.97 1012.22 1011.22 1010.27 1009.45 1008.54 1007.30 1006.20 1005.24 1003.86 1003.04 1001.65 1000.11 997.69 995.43 995.36 996.39 997.81 998.58 998.94 999.01 998.96 999.00 998.92 998.67 998.80 999.43
1020.07 1020.23 1020.39 1020.46 1020.47 1020.16 1019.94 1019.73 1019.22 1018.66 1018.11 1017.35 1016.45 1015.45 1014.35 1013.32 1012.67 1011.86 1010.97 1010.09 1009.14 1008.03 1006.75 1005.96 1004.84 1004.07 1002.81 1001.53 999.69 997.78 996.36 995.98 996.72 997.57 998.16 998.47 998.70 998.88 999.00 999.04 999.03 998.86 999.45
1020.30 1020.36 1020.40 1020.35 1020.16 1019.86 1019.66 1019.36 1018.93 1018.44 1017.88 1017.01 1016.17 1015.16 1014.22 1013.31 1012.41 1011.61 1010.71 1009.82 1008.93 1007.74 1006.71 1005.89 1004.89 1003.98 1002.97 1001.77 1000.34 998.88 998.32 998.09 998.00 998.15 998.53 998.85 999.05 999.23 999.45 999.73 999.67 999.28 999.45
1020.16 1020.23 1020.16 1020.10 1019.85 1019.65 1019.46 1019.16 1018.64 1018.20 1017.66 1016.87 1015.83 1014.99 1014.07 1013.15 1012.24 1011.28 1010.22 1009.71 1008.65 1007.69 1006.86 1006.05 1005.15 1004.35 1003.60 1002.51 1001.24 1000.27 999.12 998.78 998.67 998.92 999.32 999.57 999.60 999.63 999.91 1000.13 1000.33 1000.13 1000.25
Wind_Speed
6 6 7 8 7 5 7 7 6 4 2 2 2 1 1 2 2 3 5 6 5 6 6 5 6 5 5 5 4 3 3 3 2 3 5 4 7 6 5 4 4 5 6
6 7 7 7 9 8 7 5 5 5 3 2 2 2 2 2 3 2 4 4 5 6 5 5 5 6 4 6 6 4 3 3 2 3 2 6 6 4 2 3 3 4 4
10 8 9 10 7 7 8 8 6 5 4 4 2 0 1 1 2 2 3 3 5 4 4 5 4 6 3 4 4 4 3 4 3 4 3 4 5 3 3 4 4 5 3
6 7 8 7 9 8 6 7 7 6 5 5 3 3 2 2 2 2 3 5 4 5 5 5 5 5 4 5 4 4 3 3 4 3 4 5 4 6 10 2 4 5 6
12 11 10 10 8 5 7 7 6 5 4 5 3 3 2 2 2 2 5 5 5 6 6 6 6 6 4 5 6 6 5 3 3 4 3 3 3 5 6 10 5 3 4
10 8 7 3 5 5 5 6 6 5 4 3 2 0 2 4 3 3 4 4 4 5 6 7 6 6 6 6 6 6 6 6 5 4 5 6 5 4 4 5 8 7 5
7 8 9 7 7 7 7 5 5 5 2 2 3 2 1 2 4 5 4 6 4 4 6 6 6 5 6 7 7 6 6 7 5 6 6 5 7 7 6 8 11 6 5
6 7 7 7 7 7 6 4 3 3 2 3 4 4 2 1 3 4 5 4 4 5 7 7 6 7 7 6 6 5 5 7 7 9 7 7 7 5 7 8 9 10 5
6 8 6 5 3 3 2 3 2 1 4 4 4 4 4 5 6 7 5 4 6 7 7 6 7 8 8 12 12 9 11 10 10 11 11 8 7 7 8 9 9 10 11
6 5 4 2 0 1 2 4 4 4 3 3 2 3 6 6 6 6 7 7 8 6 7 10 11 11 12 12 11 10 10 11 9 9 11 9 7 8 8 9 9 9 10
4 2 1 1 4 4 5 4 5 5 4 4 4 6 6 6 6 6 7 7 7 10 12 12 12 12 13 13 12 12 13 13 12 12 12 12 10 9 8 6 8 9 8
6 5 3 3 5 5 5 4 3 3 4 5 5 6 6 6 6 7 8 8 12 12 13 13 13 13 14 15 15 14 14 15 14 14 14 14 10 13 10 8 11 10 9
8 7 6 4 4 3 2 2 3 4 5 5 5 6 7 7 8 9 10 10 12 13 14 14 15 14 16 17 15 15 15 15 15 15 15 15 15 14 11 12 12 11 10
7 6 3 1 0 1 2 4 6 5 6 5 6 7 7 8 9 10 11 12 12 13 14 15 16 16 16 17 17 16 17 17 16 15 15 17 15 14 14 12 13 11 9
6 2 3 5 4 3 4 5 5 6 4 6 7 8 9 8 9 10 12 13 14 13 16 17 16 16 15 13 16 16 16 17 16 16 16 14 20 26 21 12 14 13 10
6 7 8 6 5 4 5 6 6 6 5 7 8 8 10 11 12 13 14 15 14 17 16 16 17 17 13 27 31 27 17 17 16 16 16 15 21 22 27 27 30 20 14
8 9 8 6 4 4 4 6 6 6 6 6 7 9 11 12 13 14 15 16 17 16 17 17 17 18 18 31 34 33 18 16 15 15 14 11 11 17 13 18 24 24 26
8 9 6 3 4 3 4 5 6 6 6 7 8 9 11 13 14 15 16 17 16 17 16 16 17 18 17 32 33 33 18 15 15 13 12 11 11 12 12 11 12 12 11
8 7 4 3 2 4 5 5 6 6 7 9 9 10 12 14 15 16 17 16 16 16 16 16 17 18 18 30 31 27 15 12 15 14 10 11 11 18 23 13 13 13 10
7 4 3 1 2 4 4 5 6 7 8 9 11 12 13 14 15 16 16 14 15 15 13 16 16 22 18 26 30 26 12 10 9 8 10 21 15 21 22 12 10 10 10
6 2 1 2 4 4 4 6 7 8 8 9 11 13 13 13 15 15 15 14 14 14 14 15 14 17 17 20 27 30 15 9 8 8 7 7 18 19 20 20 9 11 10
3 1 2 4 4 4 4 6 7 8 8 10 12 13 13 11 12 15 14 14 13 13 14 13 13 11 12 22 26 32 32 24 8 9 7 7 15 15 16 13 13 20 19
2 1 2 5 5 5 5 6 7 7 9 11 13 13 15 14 13 14 14 12 11 11 11 9 11 11 12 12 29 36 31 19 6 7 10 13 14 13 9 11 12 15 8
3 2 4 6 6 6 6 5 7 8 9 11 12 12 14 15 13 10 9 9 10 11 9 10 11 10 12 13 14 13 10 9 3 11 7 8 8 6 3 2 10 5 4
3 3 4 5 6 6 6 6 7 8 10 10 11 12 11 12 12 10 10 10 11 13 10 9 10 10 11 14 23 15 6 5 6 5 3 3 2 2 2 3 3 2 2
3 4 5 5 6 6 6 7 7 7 9 10 11 11 10 10 9 10 11 14 18 21 21 22 17 10 20 27 26 23 18 9 8 4 2 1 1 1 2 1 2 2 1
Wind_Direction
205 190 186 172 162 172 169 173 162 180 134 81 83 36 328 324 335 352 349 346 348 351 347 340 340 346 347 321 314 288 301 298 295 313 305 287 272 290 269 287 298 332 315
188 200 199 186 184 177 193 186 193 176 161 142 181 170 202 247 251 291 320 348 356 343 335 341 328 331 334 332 329 332 310 275 281 256 264 313 306 297 236 257 281 304 311
189 205 208 208 188 186 195 196 200 192 181 169 126 317 302 315 336 344 322 331 324 326 331 321 313 313 314 302 294 288 280 284 293 228 215 317 253 313 248 265 292 295 283
203 211 211 218 208 210 194 199 197 192 194 175 173 176 185 240 232 239 261 296 311 317 314 306 305 298 294 297 284 291 275 225 268 304 227 234 217 283 303 280 263 254 266
198 206 209 215 218 183 209 203 192 202 202 202 196 181 220 225 283 293 309 314 313 314 305 297 293 288 283 272 271 285 281 237 233 226 276 273 266 228 232 285 283 275 242
210 222 228 218 226 214 206 189 192 226 229 229 175 96 286 300 310 303 306 303 290 288 286 287 284 275 273 269 265 266 255 259 247 237 229 238 240 255 232 260 267 254 255
205 219 218 208 214 203 207 204 206 252 293 15 14 32 358 300 293 294 284 297 289 287 289 291 282 275 269 267 271 267 264 259 244 246 243 227 241 252 248 259 268 249 252
220 222 214 214 207 205 207 212 237 269 359 41 36 25 6 295 278 268 276 272 273 270 272 272 270 272 272 269 263 256 254 259 255 255 242 252 248 240 249 249 263 270 253
228 229 238 226 226 279 255 240 233 72 50 42 30 360 330 310 287 288 288 279 276 283 280 285 279 272 268 276 276 273 277 268 272 271 261 244 256 256 257 252 251 251 265
332 348 2 357 276 191 78 75 70 73 55 32 348 304 302 306 294 296 287 280 281 272 276 280 279 282 282 274 266 270 270 269 271 270 265 257 262 261 255 252 251 242 250
329 333 201 119 102 98 87 72 56 46 14 334 308 306 300 296 284 274 273 273 276 290 291 285 282 282 286 279 270 265 266 266 268 266 262 263 262 264 266 260 247 247 243
34 12 13 83 72 60 51 53 30 358 311 292 286 284 276 277 290 288 279 281 286 289 287 285 280 279 285 278 269 268 270 266 268 267 266 267 265 266 265 264 260 243 240
17 7 35 47 63 69 59 359 321 301 294 287 294 300 303 304 294 289 284 285 285 290 290 283 279 275 285 282 280 276 268 263 264 263 260 258 263 262 259 262 259 254 242
355 345 347 358 292 259 318 309 302 298 296 293 293 287 285 279 281 288 285 285 288 288 287 284 275 286 283 280 279 275 271 266 261 256 255 259 251 250 250 252 257 254 237
354 331 236 238 242 282 289 294 292 292 296 299 304 304 298 287 285 286 290 292 291 283 286 288 287 287 283 278 276 270 267 266 260 254 255 254 254 255 250 239 247 245 241
277 265 257 246 243 265 296 305 305 310 322 313 304 298 302 306 302 296 296 294 290 297 294 289 289 287 282 283 283 284 275 267 262 259 259 251 267 265 268 272 260 235 227
284 277 275 254 253 274 289 301 305 312 312 304 300 300 301 301 300 298 298 294 302 298 296 294 291 287 285 286 288 286 278 273 264 256 251 233 240 255 251 262 269 265 268
284 282 263 245 270 277 295 312 319 317 309 297 290 294 300 300 301 300 296 299 302 299 299 295 292 290 288 290 293 293 280 274 268 259 239 236 237 237 241 240 255 252 259
274 266 226 220 268 317 330 329 321 309 302 303 299 298 306 302 302 301 304 304 302 302 299 296 293 290 288 291 295 302 295 263 259 251 236 239 234 237 250 247 231 238 251
282 245 234 283 329 313 331 324 308 308 305 306 304 302 303 301 302 300 303 303 302 300 300 295 290 289 292 293 294 296 291 254 257 228 227 243 235 242 252 248 245 240 227
274 166 116 312 312 331 338 321 316 308 296 301 306 304 303 301 297 302 306 306 306 303 297 295 292 290 290 290 295 301 296 268 238 219 220 228 245 254 257 251 230 214 205
238 136 340 320 314 314 315 299 294 290 297 307 306 301 302 298 309 309 311 307 303 300 298 298 298 302 306 308 306 304 295 288 215 199 216 224 242 251 258 257 239 216 204
279 315 314 308 305 295 284 300 296 305 309 308 304 306 313 320 312 318 310 309 309 303 305 313 316 318 322 313 314 309 303 269 214 179 211 224 239 248 264 284 253 229 197
295 316 320 306 300 305 312 300 302 304 306 304 305 302 326 321 322 314 307 307 306 306 315 326 316 330 323 329 332 346 8 61 115 177 216 220 223 221 232 26 2 123 155
288 291 281 286 294 310 313 310 305 309 307 309 307 316 317 320 317 312 313 314 308 321 335 333 333 336 336 351 353 11 20 33 48 70 67 57 51 79 75 60 69 355 87
271 280 283 291 298 312 311 307 307 307 305 315 327 324 321 316 318 317 316 312 319 337 342 342 351 352 360 4 6 10 24 69 48 51 71 31 148 196 159 144 115 113 121